Weather in Veliky Bor

Belarus     52°02′02″N   29°56′04″E
temp.,
°C
wind,
m/s
gust,
m/s
humid.,
%
clouds,
%
prec.,
mm/h
press.,
hPa
HPBL,
m
24 july, sat
sat2400:00+19wnw2668100 0.0 1014169
03:00+18wnw267454 0.0 1015166
06:00+14wnw258772 0.0 1015101
09:00+19nw246989 0.0 1015294
12:00+24nw345462 0.0 10161129
15:00+25nnw444488 0.0 10151879
18:00+23w225897 0.0 1016219
21:00+21wnw2261100 0.0 101727
25 july, sun
sun2500:00+20wnw0064100 0.0 101811
03:00+19wsw1166100 0.0 101811
06:00+17wnw117710 0.0 101911
09:00+23sw115743 0.1 1019406
12:00+28ssw123887 0.1 10192495
15:00+21w2460100 0.1 1020104
18:00+24sse445345 0.0 1020804
21:00+20ese226678 0.1 102030
26 july, mon
mon2600:00+17ese22767 0.0 102138
03:00+16ese228398 0.0 102246
06:00+16ese22895 0.0 102232
09:00+23se23602 0.0 1022433
12:00+24se345322 0.0 1022749
15:00+25sse254861 0.0 1021378
18:00+25sse364895 0.0 1021471
21:00+20se387146 0.0 1021167
27 july, tue
tue2700:00+18se26792 0.0 1021120
03:00+17se37785 0.0 1021132
06:00+16se39806 0.0 1022187
09:00+23se47510 0.0 1021449
12:00+28sse57395 0.0 10201656
15:00+30sse563260 0.0 10192684
18:00+30sse573754 0.0 10182309
21:00+23se4126567 0.3 1017307
28 july, wed
wed2800:00+22sse4136358 0.4 1017373
03:00+19sse41572100 0.8 1016427
06:00+20se51562100 0.1 1014447
09:00+23s5125742 0.3 1013568
12:00+29ssw694799 0.9 10121192
15:00+33ssw693659 0.9 10102727
18:00+26wnw7966100 0.7 1009743
21:00+19se3497100 20.1 100984